• In Uzbekistan
  • List of Countries
  • For 7 days
  • Water Temperature
  • Satellite Maps
  • Weather Map
  • Weather Widgets
  • user-avatar
    Login

    Hourly Weather Nakhchivan

    Today, 25 February, Saturday

    Time Temperature Precipitation Wind Pressure Humidity
    00:00 -2°C° 0 mm 1 mps 690 mmHg 77%
    01:00 -3°C° 0 mm 1 mps 690 mmHg 77%
    02:00 -3°C° 0 mm 1 mps 690 mmHg 76%
    03:00 -3°C° 0 mm 1 mps 690 mmHg 76%
    04:00 -3°C° 0 mm 1 mps 690 mmHg 76%
    05:00 -4°C° 0 mm 1 mps 690 mmHg 76%
    06:00 -4°C° 0 mm 1 mps 690 mmHg 76%
    07:00 -1°C° 0 mm 1 mps 690 mmHg 77%
    08:00 +1°C° 0 mm 1 mps 691 mmHg 79%
    09:00 +4°C° 0 mm 1 mps 692 mmHg 80%
    10:00 +5°C° 0 mm 1 mps 691 mmHg 82%
    11:00 +6°C° 0 mm 1 mps 691 mmHg 83%
    12:00 +6°C° 0 mm 1 mps 690 mmHg 85%
    13:00 +7°C° 0 mm 1 mps 690 mmHg 86%
    14:00 +7°C° 0 mm 1 mps 690 mmHg 87%
    15:00 +7°C° 0 mm 1 mps 689 mmHg 89%
    16:00 +4°C° 0 mm 1 mps 689 mmHg 88%
    17:00 +1°C° 0 mm 1 mps 688 mmHg 87%
    18:00 -2°C° 0 mm 1 mps 688 mmHg 86%
    19:00 -2°C° 0 mm 1 mps 688 mmHg 82%
    20:00 -2°C° 0 mm 1 mps 688 mmHg 78%
    21:00 -1°C° 0 mm 1 mps 689 mmHg 74%
    22:00 -1°C° 0 mm 1 mps 689 mmHg 71%
    23:00 -1°C° 0 mm 1 mps 688 mmHg 68%

    Tomorrow, 26 February, Sunday

    Time Temperature Precipitation Wind Pressure Humidity
    00:00 -1°C° 0 mm 1 mps 688 mmHg 65%
    01:00 -1°C° 0 mm 1 mps 688 mmHg 65%
    02:00 -1°C° 0 mm 1 mps 688 mmHg 65%
    03:00 -1°C° 0 mm 1 mps 688 mmHg 65%
    04:00 -1°C° 0 mm 1 mps 688 mmHg 66%
    05:00 -2°C° 0 mm 1 mps 687 mmHg 67%
    06:00 -2°C° 0 mm 1 mps 687 mmHg 67%
    07:00 0°C° 0 mm 1 mps 688 mmHg 69%
    08:00 +2°C° 0 mm 1 mps 688 mmHg 70%
    09:00 +4°C° 0 mm 1 mps 688 mmHg 71%
    10:00 +5°C° 0 mm 1 mps 688 mmHg 72%
    11:00 +5°C° 0 mm 1 mps 687 mmHg 74%
    12:00 +6°C° 0 mm 1 mps 687 mmHg 75%
    13:00 +6°C° 0 mm 1 mps 687 mmHg 76%
    14:00 +7°C° 0 mm 1 mps 686 mmHg 77%
    15:00 +7°C° 0 mm 1 mps 686 mmHg 78%
    16:00 +4°C° 0 mm 1 mps 686 mmHg 79%
    17:00 +2°C° 0 mm 1 mps 685 mmHg 80%
    18:00 0°C° 0 mm 1 mps 685 mmHg 82%
    19:00 0°C° 0 mm 1 mps 685 mmHg 81%
    20:00 0°C° 0 mm 1 mps 686 mmHg 81%
    21:00 -1°C° 0 mm 1 mps 686 mmHg 80%
    22:00 0°C° 0 mm 1 mps 686 mmHg 80%
    23:00 0°C° 0 mm 1 mps 687 mmHg 79%

    Day after tomorrow, 27 February, Monday

    Time Temperature Precipitation Wind Pressure Humidity
    00:00 0°C° 0 mm 1 mps 687 mmHg 78%
    01:00 -1°C° 0 mm 1 mps 687 mmHg 78%
    02:00 -1°C° 0 mm 1 mps 687 mmHg 78%
    03:00 -1°C° 0 mm 1 mps 687 mmHg 78%
    04:00 -1°C° 0 mm 1 mps 687 mmHg 78%
    05:00 -1°C° 0 mm 1 mps 687 mmHg 78%
    06:00 -1°C° 0 mm 1 mps 687 mmHg 78%
    07:00 +1°C° 0 mm 1 mps 688 mmHg 76%
    08:00 +3°C° 0 mm 1 mps 689 mmHg 73%
    09:00 +4°C° 0 mm 0 mps 690 mmHg 71%
    10:00 +5°C° 0 mm 0 mps 690 mmHg 72%
    11:00 +6°C° 0 mm 0 mps 689 mmHg 73%
    12:00 +6°C° 0 mm 0 mps 689 mmHg 74%
    13:00 +6°C° 0 mm 0 mps 689 mmHg 75%
    14:00 +6°C° 0 mm 0 mps 688 mmHg 76%
    15:00 +6°C° 0 mm 0 mps 688 mmHg 77%
    16:00 +4°C° 0 mm 0 mps 687 mmHg 80%
    17:00 +2°C° 0 mm 0 mps 687 mmHg 82%
    18:00 -1°C° 0 mm 0 mps 686 mmHg 85%
    19:00 -1°C° 0 mm 0 mps 686 mmHg 83%
    20:00 -1°C° 0 mm 0 mps 687 mmHg 81%
    21:00 -1°C° 0 mm 0 mps 687 mmHg 79%
    22:00 -1°C° 0 mm 0 mps 687 mmHg 78%
    23:00 -1°C° 0 mm 0 mps 687 mmHg 76%

    28 February, Tuesday

    Time Temperature Precipitation Wind Pressure Humidity
    00:00 0°C° 0 mm 1 mps 687 mmHg 74%
    01:00 0°C° 0 mm 1 mps 687 mmHg 72%
    02:00 0°C° 0 mm 1 mps 687 mmHg 71%
    03:00 0°C° 0 mm 1 mps 687 mmHg 70%
    04:00 0°C° 0 mm 1 mps 687 mmHg 70%
    05:00 0°C° 0 mm 1 mps 688 mmHg 70%
    06:00 0°C° 0 mm 1 mps 688 mmHg 70%
    07:00 +2°C° 0 mm 1 mps 688 mmHg 68%
    08:00 +4°C° 0 mm 1 mps 689 mmHg 67%
    09:00 +4°C° 0 mm 0 mps 690 mmHg 65%
    10:00 +6°C° 0 mm 1 mps 690 mmHg 67%
    11:00 +7°C° 0 mm 1 mps 689 mmHg 69%
    12:00 +8°C° 0 mm 1 mps 689 mmHg 70%
    13:00 +8°C° 0 mm 1 mps 689 mmHg 71%
    14:00 +8°C° 0 mm 1 mps 689 mmHg 72%
    15:00 +8°C° 0 mm 1 mps 688 mmHg 73%
    16:00 +6°C° 0 mm 1 mps 688 mmHg 76%
    17:00 +3°C° 0 mm 0 mps 688 mmHg 78%
    18:00 +1°C° 0 mm 0 mps 688 mmHg 81%
    19:00 +1°C° 0 mm 0 mps 688 mmHg 81%
    20:00 +1°C° 0 mm 0 mps 688 mmHg 81%
    21:00 +1°C° 0 mm 0 mps 689 mmHg 81%
    22:00 +1°C° 0 mm 0 mps 689 mmHg 79%
    23:00 +1°C° 0 mm 0 mps 689 mmHg 77%

    1 March, Wednesday

    Time Temperature Precipitation Wind Pressure Humidity
    00:00 +1°C° 0 mm 0 mps 689 mmHg 76%
    01:00 +1°C° 0 mm 0 mps 689 mmHg 74%
    02:00 +1°C° 0 mm 0 mps 689 mmHg 72%
    03:00 +1°C° 0 mm 0 mps 689 mmHg 70%
    04:00 +1°C° 0 mm 0 mps 689 mmHg 69%
    05:00 +2°C° 0 mm 1 mps 689 mmHg 68%
    06:00 +2°C° 0 mm 1 mps 689 mmHg 67%
    07:00 +3°C° 0 mm 1 mps 689 mmHg 65%
    08:00 +5°C° 0 mm 1 mps 690 mmHg 63%
    09:00 +7°C° 0 mm 1 mps 690 mmHg 61%
    10:00 +8°C° 0 mm 1 mps 690 mmHg 62%
    11:00 +9°C° 0 mm 1 mps 690 mmHg 63%
    12:00 +10°C° 0 mm 1 mps 689 mmHg 64%
    13:00 +10°C° 0 mm 1 mps 689 mmHg 65%
    14:00 +9°C° 0 mm 0 mps 688 mmHg 66%
    15:00 +9°C° 0 mm 0 mps 688 mmHg 67%
    16:00 +7°C° 0 mm 0 mps 687 mmHg 70%
    17:00 +5°C° 0 mm 0 mps 687 mmHg 73%
    18:00 +3°C° 0 mm 0 mps 686 mmHg 76%
    19:00 +3°C° 0 mm 0 mps 686 mmHg 76%
    20:00 +3°C° 0 mm 0 mps 686 mmHg 75%
    21:00 +4°C° 0 mm 1 mps 686 mmHg 75%
    22:00 +3°C° 0 mm 0 mps 686 mmHg 73%
    23:00 +3°C° 0 mm 0 mps 686 mmHg 71%

    2 March, Thursday

    Time Temperature Precipitation Wind Pressure Humidity
    00:00 +3°C° 0 mm 0 mps 686 mmHg 70%
    01:00 +3°C° 0 mm 0 mps 685 mmHg 70%
    02:00 +4°C° 0 mm 1 mps 685 mmHg 69%
    03:00 +4°C° 0 mm 1 mps 685 mmHg 69%
    04:00 +4°C° 0 mm 1 mps 685 mmHg 69%
    05:00 +3°C° 0 mm 0 mps 685 mmHg 69%
    06:00 +3°C° 0 mm 0 mps 685 mmHg 69%
    07:00 +4°C° 0 mm 0 mps 685 mmHg 68%
    08:00 +6°C° 0 mm 0 mps 685 mmHg 67%
    09:00 +7°C° 0 mm 0 mps 685 mmHg 66%
    10:00 +8°C° 0 mm 0 mps 685 mmHg 65%
    11:00 +9°C° 0 mm 0 mps 684 mmHg 65%
    12:00 +10°C° 0 mm 0 mps 684 mmHg 65%
    13:00 +10°C° 0 mm 0 mps 683 mmHg 66%
    14:00 +10°C° 0 mm 0 mps 683 mmHg 68%
    15:00 +11°C° 0 mm 1 mps 682 mmHg 69%
    16:00 +8°C° 0.1 mm 0 mps 682 mmHg 72%
    17:00 +7°C° 0.1 mm 0 mps 682 mmHg 76%
    18:00 +6°C° 0.1 mm 0 mps 682 mmHg 79%
    19:00 +6°C° 0.2 mm 0 mps 682 mmHg 80%
    20:00 +5°C° 0.2 mm 0 mps 682 mmHg 81%
    21:00 +5°C° 0.2 mm 0 mps 683 mmHg 82%
    22:00 +5°C° 0.2 mm 0 mps 682 mmHg 83%
    23:00 +5°C° 0.2 mm 0 mps 682 mmHg 84%
    Show more